Regional Weather Roundup
Issued by NWS State College, PA

Home | Current Version | Previous Version | Text Only | Print | Product List | Glossary Off
Versions: 1 2 3 4 5 6 7 8 9 10 11 12 13 14 15 16 17 18 19 20 21 22 23 24 25 26 27 28 29 30 31 32 33 34 35 36 37 38 39 40 41 42 43 44 45 46 47 48 49 50

000
ASUS41 KCTP 070603
RWRCTP

REGIONAL WEATHER ROUNDUP
NATIONAL WEATHER SERVICE STATE COLLEGE PA
100 AM EST WED DEC 07 2016

Note: "fair" indicates few or no clouds below 12,000 feet with no
significant weather and/or obstructions to visibility.

* = STATION THAT DOES NOT REPORT PRECIPITATION /E.G. RAIN...SNOW...ETC/
    THUNDER OR FOG.

PAZ002>004-007>009-013>016-020>023-029>032-070700-
WESTERN PENNSYLVANIA

CITY           SKY/WX    TMP DP  RH WIND       PRES   REMARKS
ERIE           LGT RAIN  42  39  89 SW13G18   29.79R
MEADVILLE      FOG       37  35  92 W16       29.81R VSB 1/2
FRANKLIN*        N/A     37  34  87 W13G18    29.82R
NEW CASTLE     CLOUDY    37  36  96 W14       29.87R
BEAVER COUNTY  NOT AVBL
BUTLER*        CLOUDY    39  37  93 W13G22    29.85R
PITTSBURGH INT CLOUDY    42  40  92 W17G25    29.85R FOG
PITTSBURGH     CLOUDY    41  38  89 W14G22    29.84R
INDIANA*       CLOUDY    39  39 100 W7        29.85R FOG
LATROBE        CLOUDY    41  41 100 SW10      29.85R FOG
WASHINGTON CO* CLOUDY    39  37  93 W13G23    29.89R
$$

PAZ004>006-010>012-017>019-024>028-033>037-041-042-045-046-049>053-070700-
CENTRAL PENNSYLVANIA

CITY           SKY/WX    TMP DP  RH WIND       PRES   REMARKS
BRADFORD       CLOUDY    34  34 100 S5        29.76R FOG
DUBOIS         CLOUDY    37  34  89 S3        29.78R FOG
CLEARFIELD     LGT RAIN  34  34 100 CALM      29.82R VSB 3/4
JOHNSTOWN      MIX PCPN  35  35 100 SW7       29.79R VSB 1/2
ALTOONA        CLOUDY    36  36 100 CALM      29.83R FOG
STATE COLLEGE  LGT RAIN  34  34  99 CALM      29.84R
WILLIAMSPORT   LGT RAIN  37  34  89 CALM      29.85F FOG
SELINSGROVE    CLOUDY    34  34 100 CALM      29.88R FOG
FT INDIANTOWN  DRIZZLE   37  37 100 CALM      29.85F FOG
CAPITAL CITY   LGT RAIN  39  36  89 CALM      29.86S FOG
HARRISBURG     DRIZZLE   38  38 100 N3        29.85S FOG
YORK           CLOUDY    38  38 100 CALM      29.84F FOG
$$

PAZ038>040-043-044-047-048-054-055-060>062-067>071-070700-
EASTERN PENNSYLVANIA

CITY           SKY/WX    TMP DP  RH WIND       PRES   REMARKS
SCRANTON       LGT RAIN  35  34  96 CALM      29.84R FOG
MOUNT POCONO   FRZ RAIN  31  30  96 E9        29.79R VSB 1
ALLENTOWN      LGT RAIN  37  34  89 NE7       29.85R FOG
QUAKERTOWN*    CLOUDY    37  36  93 NE5       29.84R
READING        CLOUDY    36  34  92 N9        29.84S
LANCASTER      LGT RAIN  38  38 100 N6        29.85R FOG
COATESVILLE    CLOUDY    37  37 100 NE6G12    29.83R
POTTSTOWN      LGT RAIN  37  37 100 NE9       29.84R FOG
BLUE BELL      CLOUDY    37  37 100 N5        29.83R
DOYLESTOWN     CLOUDY    39  38  96 N7        29.83R
WILLOW GROVE   NOT AVBL
NORTH PHILA    CLOUDY    42  40  92 N10       29.83R
PHILADELPHIA   CLOUDY    42  40  92 N15       29.83R
$$



USA.gov is the U.S. government's official web portal to all federal, state and local government web resources and services.